| time (UTC) | temp F | wind direction | speed MPH | gust MPH | rain 1hr in | rain 24hr in | rain mn in | humidity % | barometer mb |
| 20260504041332 | 46 | 327 | 0.0 | 0.0 | 0.00 | 0.00 | 0.00 | 76 | 1016.0 |
| 20260504040821 | 46 | 327 | 0.0 | 0.0 | 0.00 | 0.00 | 0.00 | 78 | 1016.0 |
| 20260504040354 | 46 | 327 | 0.0 | 0.0 | 0.00 | 0.00 | 0.00 | 77 | 1016.0 |
| 20260504040010 | 46 | 327 | 0.0 | 0.0 | 0.00 | 0.00 | 0.00 | 77 | 1016.1 |
| 20260504035823 | 46 | 327 | 0.0 | 0.0 | 0.00 | 0.00 | 0.00 | 78 | 1016.1 |
| 20260504035339 | 46 | 327 | 0.0 | 0.0 | 0.00 | 0.00 | 0.00 | 78 | 1016.1 |
| 20260504034827 | 46 | 327 | 0.0 | 0.0 | 0.00 | 0.00 | 0.00 | 77 | 1016.1 |
| 20260504034537 | 46 | 327 | 0.0 | 0.0 | 0.00 | 0.00 | 0.00 | 78 | 1016.1 |
| 20260504034315 | 46 | 327 | 0.0 | 0.0 | 0.00 | 0.00 | 0.00 | 78 | 1016.0 |
| 20260504033831 | 46 | 327 | 0.0 | 0.0 | 0.00 | 0.00 | 0.00 | 77 | 1016.0 |
| 20260504033329 | 46 | 327 | 0.0 | 0.0 | 0.00 | 0.00 | 0.00 | 77 | 1016.0 |
| 20260504033010 | 45 | 327 | 0.0 | 0.0 | 0.00 | 0.00 | 0.00 | 77 | 1016.1 |
| 20260504032817 | 46 | 327 | 0.0 | 0.0 | 0.00 | 0.00 | 0.00 | 77 | 1016.0 |
| 20260504032333 | 46 | 327 | 0.0 | 0.0 | 0.00 | 0.00 | 0.00 | 76 | 1016.1 |
| 20260504031821 | 46 | 327 | 0.0 | 0.0 | 0.00 | 0.00 | 0.00 | 76 | 1016.1 |
| 20260504031540 | 46 | 327 | 0.0 | 0.0 | 0.00 | 0.00 | 0.00 | 77 | 1016.2 |
| 20260504031337 | 46 | 327 | 0.0 | 0.0 | 0.00 | 0.00 | 0.00 | 76 | 1016.1 |
| 20260504030825 | 46 | 327 | 0.0 | 0.0 | 0.00 | 0.00 | 0.00 | 75 | 1016.2 |
| 20260504030341 | 46 | 327 | 0.0 | 0.0 | 0.00 | 0.00 | 0.00 | 74 | 1016.2 |
| 20260504030105 | 46 | 327 | 0.0 | 0.0 | 0.00 | 0.00 | 0.00 | 73 | 1016.2 |
| 20260504025822 | 46 | 327 | 0.0 | 0.0 | 0.00 | 0.00 | 0.00 | 73 | 1016.0 |
| 20260504025319 | 46 | 327 | 0.0 | 0.0 | 0.00 | 0.00 | 0.00 | 74 | 1016.0 |
| 20260504024825 | 46 | 327 | 0.0 | 0.0 | 0.00 | 0.00 | 0.00 | 74 | 1016.0 |
| 20260504024514 | 46 | 327 | 0.0 | 0.0 | 0.00 | 0.00 | 0.00 | 74 | 1016.2 |
| 20260504024322 | 46 | 327 | 0.0 | 0.0 | 0.00 | 0.00 | 0.00 | 74 | 1016.1 |
| 20260504023839 | 46 | 327 | 0.0 | 0.0 | 0.00 | 0.00 | 0.00 | 72 | 1016.1 |
| 20260504023325 | 47 | 327 | 0.0 | 0.0 | 0.00 | 0.00 | 0.00 | 74 | 1016.1 |
| 20260504023027 | 47 | 327 | 0.0 | 0.0 | 0.00 | 0.00 | 0.00 | 73 | 1016.1 |
| 20260504022823 | 47 | 327 | 0.0 | 0.0 | 0.00 | 0.00 | 0.00 | 72 | 1015.9 |
| 20260504022330 | 48 | 327 | 0.0 | 0.0 | 0.00 | 0.00 | 0.00 | 71 | 1015.9 |
| 20260504021815 | 48 | 327 | 0.0 | 0.0 | 0.00 | 0.00 | 0.00 | 70 | 1015.9 |
| 20260504021546 | 48 | 327 | 0.0 | 0.0 | 0.00 | 0.00 | 0.00 | 68 | 1015.9 |
| 20260504021333 | 49 | 327 | 0.0 | 0.0 | 0.00 | 0.00 | 0.00 | 66 | 1015.9 |
| 20260504020815 | 49 | 327 | 0.0 | 0.0 | 0.00 | 0.00 | 0.00 | 64 | 1015.8 |
| 20260504020330 | 49 | 327 | 0.0 | 0.0 | 0.00 | 0.00 | 0.00 | 62 | 1015.8 |
| 20260504020108 | 49 | 327 | 0.0 | 0.0 | 0.00 | 0.00 | 0.00 | 61 | 1015.8 |
| 20260504015819 | 50 | 327 | 0.0 | 0.0 | 0.00 | 0.00 | 0.00 | 61 | 1015.7 |
| 20260504015335 | 50 | 327 | 0.0 | 0.0 | 0.00 | 0.00 | 0.00 | 62 | 1015.6 |
| 20260504014822 | 50 | 327 | 0.0 | 1.0 | 0.00 | 0.00 | 0.00 | 61 | 1015.6 |
| 20260504014551 | 50 | 327 | 0.0 | 1.0 | 0.00 | 0.00 | 0.00 | 60 | 1015.7 |
| 20260504014319 | 51 | 327 | 0.0 | 1.0 | 0.00 | 0.00 | 0.00 | 60 | 1015.7 |
| 20260504013816 | 51 | 323 | 0.0 | 0.0 | 0.00 | 0.00 | 0.00 | 59 | 1015.6 |
| 20260504013322 | 51 | 261 | 0.0 | 1.0 | 0.00 | 0.00 | 0.00 | 58 | 1015.5 |
| 20260504013017 | 51 | 261 | 0.0 | 1.0 | 0.00 | 0.00 | 0.00 | 58 | 1015.6 |
| 20260504012813 | 51 | 261 | 0.0 | 1.0 | 0.00 | 0.00 | 0.00 | 58 | 1015.5 |
| 20260504012316 | 52 | 261 | 0.0 | 1.0 | 0.00 | 0.00 | 0.00 | 57 | 1015.3 |
| 20260504011832 | 52 | 261 | 0.0 | 1.0 | 0.00 | 0.00 | 0.00 | 56 | 1015.2 |
| 20260504011537 | 52 | 261 | 0.0 | 1.0 | 0.00 | 0.00 | 0.00 | 56 | 1015.3 |
| 20260504011328 | 52 | 261 | 0.0 | 1.0 | 0.00 | 0.00 | 0.00 | 56 | 1015.3 |
| 20260504010835 | 53 | 261 | 0.0 | 1.0 | 0.00 | 0.00 | 0.00 | 56 | 1015.2 |
| 20260504010327 | 53 | 261 | 0.0 | 0.0 | 0.00 | 0.00 | 0.00 | 55 | 1015.3 |
| 20260504010012 | 53 | 261 | 0.0 | 0.0 | 0.00 | 0.00 | 0.00 | 55 | 1015.3 |
| 20260504005848 | 54 | 261 | 0.0 | 0.0 | 0.00 | 0.00 | 0.00 | 55 | 1015.2 |
| 20260504005342 | 54 | 261 | 0.0 | 1.0 | 0.00 | 0.00 | 0.00 | 53 | 1015.3 |
| 20260504004838 | 54 | 261 | 0.0 | 1.0 | 0.00 | 0.00 | 0.00 | 51 | 1015.1 |
| 20260504004611 | 54 | 261 | 0.0 | 1.0 | 0.00 | 0.00 | 0.00 | 52 | 1015.2 |
| 20260504004320 | 55 | 261 | 0.0 | 1.0 | 0.00 | 0.00 | 0.00 | 51 | 1015.0 |
| 20260504003816 | 56 | 261 | 0.0 | 1.0 | 0.00 | 0.00 | 0.00 | 49 | 1015.1 |
| 20260504003317 | 57 | 261 | 0.0 | 0.0 | 0.00 | 0.00 | 0.00 | 49 | 1015.0 |
| 20260504003015 | 56 | 261 | 0.0 | 0.0 | 0.00 | 0.00 | 0.00 | 50 | 1015.0 |
| 20260504002848 | 57 | 261 | 0.0 | 0.0 | 0.00 | 0.00 | 0.00 | 49 | 1014.9 |
| 20260504002333 | 58 | 261 | 0.0 | 0.0 | 0.00 | 0.00 | 0.00 | 48 | 1015.0 |
| 20260504001813 | 59 | 261 | 0.0 | 0.0 | 0.00 | 0.00 | 0.00 | 44 | 1014.9 |
| 20260504001503 | 59 | 261 | 0.0 | 0.0 | 0.00 | 0.00 | 0.00 | 43 | 1014.8 |
| 20260504001326 | 59 | 261 | 0.0 | 0.0 | 0.00 | 0.00 | 0.00 | 44 | 1014.8 |
| 20260504000839 | 60 | 261 | 0.0 | 0.0 | 0.00 | 0.00 | 0.00 | 39 | 1014.8 |
| 20260504000326 | 61 | 261 | 0.0 | 0.0 | 0.00 | 0.00 | 0.00 | 37 | 1014.8 |
| 20260504000001 | 61 | 261 | 0.0 | 0.0 | 0.00 | 0.00 | 0.00 | 35 | 1014.8 |
| 20260503235826 | 61 | 261 | 0.0 | 0.0 | 0.00 | 0.00 | 0.00 | 35 | 1014.8 |
| 20260503235341 | 62 | 261 | 0.0 | 0.0 | 0.00 | 0.00 | 0.00 | 35 | 1014.8 |
| 20260503234829 | 63 | 261 | 0.0 | 0.0 | 0.00 | 0.00 | 0.00 | 34 | 1014.6 |
| 20260503234532 | 63 | 261 | 0.0 | 0.0 | 0.00 | 0.00 | 0.00 | 34 | 1014.7 |
| 20260503234324 | 63 | 261 | 0.0 | 0.0 | 0.00 | 0.00 | 0.00 | 34 | 1014.7 |
| 20260503233832 | 64 | 261 | 0.0 | 0.0 | 0.00 | 0.00 | 0.00 | 35 | 1014.6 |
| 20260503233327 | 65 | 261 | 0.0 | 0.0 | 0.00 | 0.00 | 0.00 | 35 | 1014.6 |
| 20260503233059 | 65 | 261 | 0.0 | 0.0 | 0.00 | 0.00 | 0.00 | 34 | 1014.7 |
| 20260503232831 | 65 | 261 | 0.0 | 0.0 | 0.00 | 0.00 | 0.00 | 36 | 1014.6 |
| 20260503232323 | 65 | 261 | 0.0 | 1.0 | 0.00 | 0.00 | 0.00 | 34 | 1014.7 |
| 20260503231831 | 65 | 261 | 0.0 | 1.0 | 0.00 | 0.00 | 0.00 | 29 | 1014.6 |
| 20260503231520 | 64 | 261 | 0.0 | 3.0 | 0.00 | 0.00 | 0.00 | 29 | 1014.6 |
| 20260503231326 | 65 | 261 | 0.0 | 3.0 | 0.00 | 0.00 | 0.00 | 29 | 1014.5 |
| 20260503230842 | 65 | 261 | 1.0 | 3.0 | 0.00 | 0.00 | 0.00 | 29 | 1014.5 |
| 20260503230323 | 65 | 261 | 1.0 | 3.0 | 0.00 | 0.00 | 0.00 | 29 | 1014.5 |
| 20260503230017 | 65 | 262 | 0.0 | 4.0 | 0.00 | 0.00 | 0.00 | 29 | 1014.6 |
| 20260503225828 | 65 | 262 | 0.0 | 4.0 | 0.00 | 0.00 | 0.00 | 29 | 1014.5 |
| 20260503225315 | 65 | 204 | 2.0 | 4.0 | 0.00 | 0.00 | 0.00 | 29 | 1014.5 |
| 20260503224824 | 66 | 295 | 0.0 | 0.0 | 0.00 | 0.00 | 0.00 | 30 | 1014.5 |
| 20260503224539 | 65 | 295 | 0.0 | 1.0 | 0.00 | 0.00 | 0.00 | 28 | 1014.6 |
| 20260503224327 | 66 | 295 | 0.0 | 3.0 | 0.00 | 0.00 | 0.00 | 28 | 1014.5 |
| 20260503223823 | 66 | 295 | 0.0 | 4.0 | 0.00 | 0.00 | 0.00 | 28 | 1014.5 |
| 20260503223315 | 66 | 286 | 2.0 | 8.0 | 0.00 | 0.00 | 0.00 | 28 | 1014.4 |
| 20260503223044 | 65 | 302 | 1.0 | 8.0 | 0.00 | 0.00 | 0.00 | 29 | 1014.6 |
| 20260503222822 | 65 | 326 | 4.0 | 8.0 | 0.00 | 0.00 | 0.00 | 28 | 1014.4 |
| 20260503222320 | 65 | 328 | 3.0 | 8.0 | 0.00 | 0.00 | 0.00 | 28 | 1014.4 |
| 20260503221835 | 65 | 298 | 3.0 | 10.0 | 0.00 | 0.00 | 0.00 | 28 | 1014.5 |
| 20260503221511 | 65 | 254 | 3.0 | 10.0 | 0.00 | 0.00 | 0.00 | 28 | 1014.6 |
| 20260503221323 | 66 | 291 | 6.0 | 10.0 | 0.00 | 0.00 | 0.00 | 29 | 1014.7 |
| 20260503220838 | 66 | 128 | 2.0 | 10.0 | 0.00 | 0.00 | 0.00 | 29 | 1014.6 |
| 20260503220346 | 66 | 339 | 3.0 | 9.0 | 0.00 | 0.00 | 0.00 | 28 | 1014.6 |
| 20260503220123 | 65 | 291 | 1.0 | 5.0 | 0.00 | 0.00 | 0.00 | 29 | 1014.8 |
| 20260503215814 | 66 | 237 | 2.0 | 9.0 | 0.00 | 0.00 | 0.00 | 29 | 1014.7 |
| 20260503215331 | 65 | 322 | 1.0 | 12.0 | 0.00 | 0.00 | 0.00 | 29 | 1014.7 |
| 20260503214820 | 65 | 315 | 5.0 | 12.0 | 0.00 | 0.00 | 0.00 | 28 | 1014.7 |
| 20260503214529 | 65 | 274 | 4.0 | 9.0 | 0.00 | 0.00 | 0.00 | 28 | 1014.7 |
| 20260503214333 | 65 | 275 | 2.0 | 9.0 | 0.00 | 0.00 | 0.00 | 29 | 1014.7 |
| 20260503213851 | 65 | 277 | 3.0 | 9.0 | 0.00 | 0.00 | 0.00 | 28 | 1014.7 |
| 20260503213317 | 65 | 282 | 3.0 | 10.0 | 0.00 | 0.00 | 0.00 | 29 | 1014.7 |
| 20260503213038 | 65 | 277 | 1.0 | 10.0 | 0.00 | 0.00 | 0.00 | 29 | 1014.8 |
| 20260503212853 | 65 | 348 | 4.0 | 13.0 | 0.00 | 0.00 | 0.00 | 29 | 1014.7 |
| 20260503212320 | 65 | 293 | 3.0 | 13.0 | 0.00 | 0.00 | 0.00 | 30 | 1014.7 |
| 20260503211816 | 65 | 310 | 4.0 | 9.0 | 0.00 | 0.00 | 0.00 | 29 | 1014.8 |
| 20260503211547 | 64 | 339 | 4.0 | 9.0 | 0.00 | 0.00 | 0.00 | 30 | 1014.8 |
| 20260503211324 | 64 | 329 | 3.0 | 9.0 | 0.00 | 0.00 | 0.00 | 31 | 1014.8 |
| 20260503210821 | 64 | 161 | 4.0 | 11.0 | 0.00 | 0.00 | 0.00 | 30 | 1014.8 |
| 20260503210339 | 65 | 291 | 6.0 | 11.0 | 0.00 | 0.00 | 0.00 | 30 | 1014.9 |
| 20260503210119 | 64 | 268 | 6.0 | 11.0 | 0.00 | 0.00 | 0.00 | 30 | 1015.0 |
| 20260503205820 | 65 | 329 | 3.0 | 12.0 | 0.00 | 0.00 | 0.00 | 30 | 1014.9 |
| 20260503205333 | 64 | 306 | 5.0 | 12.0 | 0.00 | 0.00 | 0.00 | 31 | 1015.0 |
| 20260503204821 | 64 | 288 | 2.0 | 8.0 | 0.00 | 0.00 | 0.00 | 31 | 1015.1 |
| 20260503204528 | 64 | 282 | 1.0 | 10.0 | 0.00 | 0.00 | 0.00 | 32 | 1015.2 |
| 20260503204337 | 64 | 154 | 1.0 | 10.0 | 0.00 | 0.00 | 0.00 | 31 | 1015.1 |
| 20260503203825 | 64 | 348 | 5.0 | 12.0 | 0.00 | 0.00 | 0.00 | 30 | 1015.2 |
| 20260503203321 | 63 | 269 | 7.0 | 12.0 | 0.00 | 0.00 | 0.00 | 31 | 1015.2 |
| 20260503203100 | 63 | 324 | 7.0 | 11.0 | 0.00 | 0.00 | 0.00 | 30 | 1015.3 |
| 20260503202829 | 64 | 307 | 6.0 | 11.0 | 0.00 | 0.00 | 0.00 | 31 | 1015.2 |
| 20260503202325 | 64 | 313 | 3.0 | 11.0 | 0.00 | 0.00 | 0.00 | 31 | 1015.2 |
| 20260503201833 | 64 | 312 | 1.0 | 7.0 | 0.00 | 0.00 | 0.00 | 32 | 1015.2 |
| 20260503201525 | 62 | 353 | 3.0 | 7.0 | 0.00 | 0.00 | 0.00 | 32 | 1015.5 |
| 20260503201330 | 63 | 299 | 2.0 | 8.0 | 0.00 | 0.00 | 0.00 | 32 | 1015.3 |
| 20260503200817 | 63 | 277 | 1.0 | 14.0 | 0.00 | 0.00 | 0.00 | 31 | 1015.4 |
| 20260503200334 | 63 | 218 | 7.0 | 14.0 | 0.00 | 0.00 | 0.00 | 32 | 1015.6 |
| 20260503200101 | 62 | 342 | 9.0 | 14.0 | 0.00 | 0.00 | 0.00 | 32 | 1015.7 |
| 20260503195815 | 62 | 285 | 4.0 | 18.0 | 0.00 | 0.00 | 0.00 | 32 | 1015.6 |
| 20260503195332 | 63 | 334 | 9.0 | 18.0 | 0.00 | 0.00 | 0.00 | 32 | 1015.7 |
| 20260503194848 | 63 | 310 | 6.0 | 13.0 | 0.00 | 0.00 | 0.00 | 32 | 1015.8 |
| 20260503194547 | 63 | 272 | 4.0 | 13.0 | 0.00 | 0.00 | 0.00 | 34 | 1016.0 |
| 20260503194316 | 63 | 249 | 6.0 | 13.0 | 0.00 | 0.00 | 0.00 | 34 | 1015.9 |
| 20260503193832 | 63 | 267 | 7.0 | 16.0 | 0.00 | 0.00 | 0.00 | 34 | 1015.9 |
| 20260503193320 | 62 | 21 | 3.0 | 16.0 | 0.00 | 0.00 | 0.00 | 34 | 1015.9 |
| 20260503193014 | 62 | 316 | 6.0 | 16.0 | 0.00 | 0.00 | 0.00 | 35 | 1016.2 |
| 20260503192818 | 62 | 316 | 4.0 | 11.0 | 0.00 | 0.00 | 0.00 | 34 | 1016.0 |
| 20260503192337 | 62 | 297 | 7.0 | 12.0 | 0.00 | 0.00 | 0.00 | 33 | 1016.2 |
| 20260503191823 | 62 | 326 | 2.0 | 14.0 | 0.00 | 0.00 | 0.00 | 35 | 1016.2 |
| 20260503191543 | 62 | 312 | 7.0 | 14.0 | 0.00 | 0.00 | 0.00 | 34 | 1016.5 |
| 20260503191339 | 62 | 8 | 7.0 | 14.0 | 0.00 | 0.00 | 0.00 | 36 | 1016.3 |
| 20260503190855 | 61 | 339 | 3.0 | 12.0 | 0.00 | 0.00 | 0.00 | 35 | 1016.4 |
| 20260503190342 | 61 | 283 | 6.0 | 12.0 | 0.00 | 0.00 | 0.00 | 35 | 1016.7 |
| 20260503190115 | 60 | 270 | 4.0 | 14.0 | 0.00 | 0.00 | 0.00 | 36 | 1016.8 |
| 20260503185827 | 60 | 268 | 4.0 | 14.0 | 0.00 | 0.00 | 0.00 | 33 | 1016.7 |
| 20260503185324 | 61 | 280 | 8.0 | 14.0 | 0.00 | 0.00 | 0.00 | 35 | 1016.8 |
| 20260503184902 | 61 | 8 | 5.0 | 12.0 | 0.00 | 0.00 | 0.00 | 35 | 1016.8 |
| 20260503184503 | 60 | 348 | 4.0 | 12.0 | 0.00 | 0.00 | 0.00 | 35 | 1017.1 |
| 20260503184328 | 60 | 326 | 6.0 | 12.0 | 0.00 | 0.00 | 0.00 | 36 | 1017.0 |
| 20260503183826 | 60 | 306 | 6.0 | 14.0 | 0.00 | 0.00 | 0.00 | 36 | 1017.0 |
| 20260503183333 | 59 | 294 | 5.0 | 17.0 | 0.00 | 0.00 | 0.00 | 35 | 1017.1 |
| 20260503183033 | 59 | 293 | 8.0 | 17.0 | 0.00 | 0.00 | 0.00 | 36 | 1017.3 |
| 20260503182829 | 60 | 314 | 10.0 | 16.0 | 0.00 | 0.00 | 0.00 | 35 | 1017.1 |
| 20260503182337 | 60 | 353 | 7.0 | 14.0 | 0.00 | 0.00 | 0.00 | 37 | 1017.1 |
| 20260503181853 | 60 | 358 | 4.0 | 11.0 | 0.00 | 0.00 | 0.00 | 37 | 1017.0 |
| 20260503181522 | 59 | 277 | 4.0 | 11.0 | 0.00 | 0.00 | 0.00 | 37 | 1017.2 |
| 20260503181328 | 59 | 304 | 6.0 | 11.0 | 0.00 | 0.00 | 0.00 | 37 | 1017.1 |
| 20260503180816 | 59 | 358 | 3.0 | 13.0 | 0.00 | 0.00 | 0.00 | 37 | 1017.1 |
| 20260503180314 | 59 | 76 | 8.0 | 13.0 | 0.00 | 0.00 | 0.00 | 37 | 1017.3 |
| 20260503180106 | 59 | 303 | 7.0 | 12.0 | 0.00 | 0.00 | 0.00 | 39 | 1017.5 |
| 20260503175825 | 59 | 206 | 2.0 | 11.0 | 0.00 | 0.00 | 0.00 | 38 | 1017.3 |
| 20260503175401 | 59 | 187 | 4.0 | 11.0 | 0.00 | 0.00 | 0.00 | 38 | 1017.4 |
| 20260503174827 | 58 | 162 | 2.0 | 11.0 | 0.00 | 0.00 | 0.00 | 38 | 1017.3 |
| 20260503174546 | 58 | 320 | 6.0 | 15.0 | 0.00 | 0.00 | 0.00 | 37 | 1017.5 |
| 20260503174344 | 59 | 207 | 4.0 | 15.0 | 0.00 | 0.00 | 0.00 | 38 | 1017.4 |
| 20260503173831 | 59 | 267 | 7.0 | 15.0 | 0.00 | 0.00 | 0.00 | 39 | 1017.4 |
| 20260503173327 | 59 | 236 | 3.0 | 5.0 | 0.00 | 0.00 | 0.00 | 38 | 1017.4 |
| 20260503173104 | 58 | 318 | 2.0 | 5.0 | 0.00 | 0.00 | 0.00 | 39 | 1017.6 |
| 20260503172815 | 58 | 348 | 0.0 | 8.0 | 0.00 | 0.00 | 0.00 | 39 | 1017.5 |
| 20260503172332 | 58 | 223 | 2.0 | 13.0 | 0.00 | 0.00 | 0.00 | 39 | 1017.6 |
| 20260503171820 | 57 | 337 | 6.0 | 13.0 | 0.00 | 0.00 | 0.00 | 41 | 1017.5 |
| 20260503171524 | 56 | 331 | 5.0 | 13.0 | 0.00 | 0.00 | 0.00 | 40 | 1017.7 |
| 20260503171317 | 57 | 314 | 5.0 | 15.0 | 0.00 | 0.00 | 0.00 | 40 | 1017.7 |
| 20260503170821 | 56 | 318 | 5.0 | 15.0 | 0.00 | 0.00 | 0.00 | 40 | 1017.8 |
| 20260503170317 | 56 | 319 | 5.0 | 12.0 | 0.00 | 0.00 | 0.00 | 41 | 1017.9 |
| 20260503150824 | 51 | 320 | 4.0 | 12.0 | 0.00 | 0.00 | 0.00 | 44 | 1019.3 |
| 20260503150341 | 52 | 325 | 7.0 | 13.0 | 0.00 | 0.00 | 0.00 | 45 | 1019.4 |
| 20260503150105 | 51 | 320 | 7.0 | 14.0 | 0.00 | 0.00 | 0.00 | 46 | 1019.5 |
| 20260503131333 | 48 | 292 | 5.0 | 11.0 | 0.00 | 0.00 | 0.00 | 52 | 1019.1 |
| 20260503130841 | 48 | 348 | 4.0 | 12.0 | 0.00 | 0.00 | 0.00 | 52 | 1019.1 |
| 20260503130315 | 48 | 304 | 6.0 | 15.0 | 0.00 | 0.00 | 0.00 | 53 | 1019.2 |
| 20260503110819 | 44 | 348 | 3.0 | 6.0 | 0.00 | 0.00 | 0.00 | 62 | 1018.4 |
| 20260503110316 | 44 | 329 | 1.0 | 10.0 | 0.00 | 0.00 | 0.00 | 61 | 1018.2 |
| 20260503100120 | 44 | 336 | 3.0 | 8.0 | 0.00 | 0.00 | 0.00 | 63 | 1016.9 |
| 20260503090349 | 46 | 12 | 11.0 | 16.0 | 0.00 | 0.00 | 0.00 | 60 | 1016.3 |
| 20260503090121 | 45 | 327 | 9.0 | 16.0 | 0.00 | 0.00 | 0.00 | 60 | 1016.3 |
| 20260503081549 | 45 | 313 | 2.0 | 8.0 | 0.00 | 0.00 | 0.00 | 66 | 1016.2 |
| 20260503081340 | 46 | 330 | 3.0 | 8.0 | 0.00 | 0.00 | 0.00 | 66 | 1016.0 |
| 20260503080826 | 46 | 328 | 3.0 | 5.0 | 0.00 | 0.00 | 0.00 | 67 | 1016.0 |
| 20260503080314 | 46 | 324 | 2.0 | 5.0 | 0.00 | 0.00 | 0.00 | 66 | 1016.0 |
| 20260503080119 | 45 | 317 | 1.0 | 5.0 | 0.00 | 0.00 | 0.00 | 67 | 1016.0 |
| 20260503072833 | 44 | 294 | 5.0 | 11.0 | 0.00 | 0.00 | 0.00 | 69 | 1015.7 |
| 20260503072320 | 44 | 278 | 1.0 | 7.0 | 0.00 | 0.00 | 0.00 | 70 | 1015.6 |
| 20260503071814 | 44 | 316 | 1.0 | 7.0 | 0.00 | 0.00 | 0.00 | 70 | 1015.6 |
| 20260503071536 | 44 | 316 | 2.0 | 7.0 | 0.00 | 0.00 | 0.00 | 70 | 1015.6 |
| 20260503071330 | 44 | 331 | 1.0 | 4.0 | 0.00 | 0.00 | 0.00 | 70 | 1015.5 |
| 20260503070838 | 45 | 228 | 1.0 | 8.0 | 0.00 | 0.00 | 0.00 | 69 | 1015.5 |
| 20260503070354 | 45 | 337 | 3.0 | 8.0 | 0.00 | 0.00 | 0.00 | 68 | 1015.3 |
| 20260503060325 | 47 | 348 | 4.0 | 12.0 | 0.00 | 0.00 | 0.00 | 63 | 1015.3 |
| 20260503060105 | 47 | 353 | 5.0 | 12.0 | 0.00 | 0.00 | 0.00 | 63 | 1015.3 |
| 20260503054816 | 48 | 316 | 2.0 | 6.0 | 0.00 | 0.00 | 0.00 | 61 | 1015.2 |
| 20260503054555 | 47 | 311 | 2.0 | 8.0 | 0.00 | 0.00 | 0.00 | 61 | 1015.2 |
| 20260503054325 | 48 | 312 | 3.0 | 8.0 | 0.00 | 0.00 | 0.00 | 61 | 1015.2 |
| 20260503053822 | 48 | 306 | 3.0 | 9.0 | 0.00 | 0.00 | 0.00 | 61 | 1015.2 |
| 20260503053338 | 48 | 335 | 4.0 | 12.0 | 0.00 | 0.00 | 0.00 | 60 | 1015.0 |
| 20260503053056 | 47 | 327 | 4.0 | 12.0 | 0.00 | 0.00 | 0.00 | 60 | 1015.2 |
| 20260503052825 | 48 | 312 | 6.0 | 12.0 | 0.00 | 0.00 | 0.00 | 60 | 1015.2 |
| 20260503052342 | 48 | 315 | 0.0 | 8.0 | 0.00 | 0.00 | 0.00 | 60 | 1015.1 |
| 20260503051838 | 48 | 320 | 4.0 | 8.0 | 0.00 | 0.00 | 0.00 | 59 | 1015.0 |
| 20260503051502 | 48 | 300 | 3.0 | 8.0 | 0.00 | 0.00 | 0.00 | 59 | 1015.1 |
| 20260503051326 | 49 | 309 | 4.0 | 10.0 | 0.00 | 0.00 | 0.00 | 59 | 1015.0 |
| 20260503050814 | 49 | 292 | 3.0 | 10.0 | 0.00 | 0.00 | 0.00 | 59 | 1014.9 |
| 20260503050331 | 49 | 321 | 5.0 | 10.0 | 0.00 | 0.00 | 0.00 | 58 | 1014.9 |
| 20260503050014 | 49 | 305 | 3.0 | 9.0 | 0.00 | 0.00 | 0.00 | 58 | 1014.9 |
| 20260503045843 | 49 | 330 | 2.0 | 9.0 | 0.00 | 0.00 | 0.00 | 58 | 1015.0 |
| 20260503045318 | 49 | 303 | 4.0 | 6.0 | 0.00 | 0.00 | 0.00 | 58 | 1015.0 |
| 20260503044825 | 50 | 320 | 2.0 | 6.0 | 0.00 | 0.00 | 0.00 | 57 | 1014.9 |
| 20260503044525 | 49 | 328 | 3.0 | 6.0 | 0.00 | 0.00 | 0.00 | 56 | 1014.9 |
| 20260503044322 | 50 | 320 | 3.0 | 8.0 | 0.00 | 0.00 | 0.00 | 56 | 1014.9 |
| 20260503043830 | 50 | 312 | 3.0 | 10.0 | 0.00 | 0.00 | 0.00 | 55 | 1015.0 |
| 20260503043326 | 50 | 315 | 5.0 | 13.0 | 0.00 | 0.00 | 0.00 | 55 | 1015.0 |
| 20260503043056 | 50 | 320 | 3.0 | 13.0 | 0.00 | 0.00 | 0.00 | 55 | 1015.0 |
| 20260503042814 | 50 | 341 | 3.0 | 12.0 | 0.00 | 0.00 | 0.00 | 55 | 1015.0 |
| 20260503042313 | 51 | 304 | 7.0 | 12.0 | 0.00 | 0.00 | 0.00 | 54 | 1015.0 |
| 20260503041820 | 51 | 317 | 6.0 | 11.0 | 0.00 | 0.00 | 0.00 | 54 | 1015.0 |
| 20260503041524 | 50 | 318 | 4.0 | 8.0 | 0.00 | 0.00 | 0.00 | 54 | 1015.0 |